Regional Weather Roundup
Issued by NWS Green Bay, WI

Home | Current Version | Previous Version | Text Only | Print | Product List | Glossary On
Versions: 1 2 3 4 5 6 7 8 9 10 11 12 13 14 15 16 17 18 19 20 21 22 23 24 25 26 27 28 29 30 31 32 33 34 35 36 37 38 39 40 41 42 43 44 45 46 47 48 49 50
000
ASUS43 KGRB 211610
RWRGRB

NORTH-CENTRAL AND NORTHEAST WISCONSIN REGIONAL WEATHER ROUNDUP
NATIONAL WEATHER SERVICE GREEN BAY WI
1000 AM CST SUN DEC 21 2014

WIZ005-009-010>012-018-019-211700-
NORTH CENTRAL WISCONSIN

CITY           SKY/WX    TMP DP  RH WIND       PRES   REMARKS
IRONWOOD       CLOUDY    32  28  86 S7        29.91F
MANITOWISH WTR CLOUDY    29  29  99 S8        29.95F FOG
ARBOR VITAE    CLOUDY    32  30  92 S10       29.97S FOG
EAGLE RIVER    CLOUDY    29  28  98 S7        29.99R FOG
LAND O LAKES   CLOUDY    29  28  94 S6        29.99S FOG
RHINELANDER    CLOUDY    28  26  92 SE8       29.99F FOG
PHILLIPS       CLOUDY    30  28  92 S8        29.96S FOG
ANTIGO         FOG       27  27 100 SE12      30.03S VSB<1/4
TOMAHAWK       CLOUDY    29  28  94 CALM      30.00S FOG
MERRILL        CLOUDY    30  29  99 S7        30.01F FOG
$$

WIZ013-073-211700-
NORTHEAST WISCONSIN

CITY           SKY/WX    TMP DP  RH WIND       PRES   REMARKS
IRON MOUNTAIN  CLOUDY    28  25  88 SE8       30.06F FOG
MARINETTE      CLOUDY    32  27  80 S6        30.12R
OCONTO         CLOUDY    32  30  91 S3        30.12S
$$

WIZ017-030-035>037-045-211700-
CENTRAL WISCONSIN

CITY           SKY/WX    TMP DP  RH WIND       PRES   REMARKS
MEDFORD        FOG       29  28  97 SE10G17   29.98S VSB 1
WAUSAU         CLOUDY    30  28  92 S9        30.02F FOG
MOSINEE        CLOUDY    30  30 100 SE10      30.04S FOG
MARSHFIELD     CLOUDY    31  29  92 SE10      30.00F FOG
WISC RAPIDS    CLOUDY    32  29  88 S9        30.05F FOG
STEVENS POINT  CLOUDY    30  28  95 SE9       30.05F FOG
WAUPACA        CLOUDY    34  31  91 SE7       30.09S FOG
SHAWANO        CLOUDY    33  30  88 CALM      30.10S FOG
CLINTONVILLE   CLOUDY    32  30  93 S8        30.09S FOG
$$

WIZ038-039-048-051-211700-
FOX VALLEY

CITY           SKY/WX    TMP DP  RH WIND       PRES   REMARKS
NWS GREEN BAY  LGT SNOW  33  30  88 S8        30.12S FOG
APPLETON       CLOUDY    32  30  93 S13       30.10S FOG
OSHKOSH        CLOUDY    33  30  88 S10       30.11S FOG
FOND DU LAC    CLOUDY    33  30  88 S13       30.12S FOG
$$

WIZ022-050-052-211700-
EAST CENTRAL WISCONSIN

CITY           SKY/WX    TMP DP  RH WIND       PRES   REMARKS
STURGEON BAY   CLOUDY    34  28  80 S9        30.14S
MANITOWOC      CLOUDY    36  33  89 S15       30.14F
SHEBOYGAN      CLOUDY    34  30  85 S12       30.14F FOG
$$

LMZ563-521-522-541>543-211700-
LAKESHORE

STATION/POSITION TIME  TEMP    WIND        PRES    VSBY  WAVE
                       AIR SEA DIR/SP/G                  HT/PER
                 (UTC) (F)     (DEG/KT/KT) (MB)    (MI)  (FT/S)
SHEBOYGAN LKSHOR 1600   36 34  180/ 21/ 23 1021.5F
KEWAUNEE LKSHORE 1600   35     190/ 11/ 14 1019.6S
ALGOMA MARINA    1600          230/ 13/ 15   N/A
NORTHPORT PIER   1600   35     150/  5/ 11 1020.7S
SISTER BAY LKSHO 1500          130/  9/ 12   N/A
STURGEON BAY CG  1600   36     190/ 10     1021.9      6   1
CHAMBERS ISLAND  1600   33     150/  3/  7 1020.7S
MENOMINEE LKSHOR 1600   32     160/  7/  8 1020.6S
$$


USA.gov is the U.S. government's official web portal to all federal, state and local government web resources and services.